[[{"header":{"parameterUnit":"m.s-1","parameterCategory":1,"la1":30.2991,"la2":30.254,"lo1":-89.0895,"lo2":-89.0444,"dy":0.0017,"dx":0.0017,"nx":28,"ny":28,"refTime":"2026-03-02T09:00:00:Z","depth":0,"parameterNumber":2,"parameterNumberName":"U-component_of_WINDS"},"data":[0,0,0,0,0,0,0,0,0,0,0,0,0,0,0,0,0,0,0,0,0,0,0,0,0,0,0,0,0,0,0,0,0,0,0,0,0,0,0,0,0,0,0,0,0,0,0,0,0,0,0,0,0,0,0,0,0,0,-2.7482,-2.7483,0,-2.7528,-2.7529,-2.7529,-2.7464,-2.7462,-2.746,-2.7457,-2.751,-2.7514,-2.7517,0,0,0,0,0,0,0,0,0,0,0,0,0,-2.7345,-2.7347,-2.7482,-2.7483,-2.7484,-2.7528,-2.7529,-2.7529,-2.7465,-2.7462,-2.7459,-2.7456,-2.7509,-2.7514,-2.7518,0,0,0,0,0,0,0,0,0,0,0,0,0,-2.7399,-2.7348,-2.7482,-2.7456,-2.7455,-2.7528,-2.7529,-2.7529,-2.7465,-2.7462,-2.7458,-2.7455,-2.7508,-2.7513,-2.7518,-2.7621,0,0,-2.7535,-2.7537,0,0,0,0,0,0,0,0,-2.7396,-2.7404,-2.746,-2.7458,-2.7456,-2.7487,-2.7499,-2.756,-2.7466,-2.7462,-2.7457,-2.7453,-2.7506,-2.7511,-2.7528,-2.7623,-2.7626,-2.7535,-2.7538,-2.7541,-2.7542,0,0,0,0,0,0,0,-2.7392,-2.7402,-2.7501,-2.7461,-2.7459,-2.7444,-2.7448,-2.7511,-2.7503,-2.7462,-2.7457,-2.7463,-2.7504,-2.7523,-2.7528,-2.7626,-2.7535,-2.754,-2.7543,-2.7545,-2.781,-2.7814,0,0,0,0,0,0,-2.7391,-2.7399,-2.7499,-2.7502,-2.7417,-2.745,-2.7454,-2.7481,-2.7502,-2.7502,-2.7466,-2.746,-2.7515,-2.7522,-2.753,-2.7652,-2.7541,-2.7546,-2.7549,-2.7806,-2.7811,-2.7815,0,0,0,0,0,0,-2.7388,-2.74,-2.7497,-2.7449,-2.746,-2.7456,-2.7486,-2.7483,-2.7501,-2.7505,-2.7504,-2.7486,-2.7513,-2.7522,-2.7599,-2.7653,-2.7548,-2.7553,-2.7802,-2.7808,-2.7813,-2.7898,0,0,0,0,0,0,-2.7384,-2.74,-2.7437,-2.7451,-2.7463,-2.7564,-2.7489,-2.7487,-2.751,-2.7503,-2.7523,-2.7523,-2.7511,-2.7591,-2.7604,-2.7659,-2.7557,-2.7797,-2.7804,-2.7811,-2.789,-2.7906,-2.7919,0,0,0,0,0,-2.738,-2.7461,-2.744,-2.7452,-2.751,-2.7567,-2.7575,-2.7557,-2.7515,-2.7554,-2.7556,-2.7523,-2.7645,-2.7599,-2.7613,-2.7671,-2.7793,-2.7802,-2.7811,-2.7884,-2.7903,-2.7919,0,0,0,0,0,0,-2.7456,-2.7462,-2.7439,-2.7526,-2.7546,-2.7556,-2.7604,-2.7577,-2.7611,-2.7603,-2.7581,-2.7586,-2.7668,-2.7677,-2.7626,-2.7772,-2.7713,-2.7724,-2.7763,-2.7781,-2.7796,-2.7793,-2.7562,0,0,0,0,0,-2.7483,-2.7527,-2.753,-2.7607,-2.7618,-2.761,-2.7634,-2.7618,-2.7639,-2.7648,-2.7656,-2.7679,-2.7723,-2.7752,-2.7792,-2.789,-2.7895,-2.7937,-2.7951,-2.7963,-2.7975,-2.8029,-2.8048,-2.7843,-2.7843,-2.7843,0,0,-2.7539,-2.7548,-2.7577,-2.7622,-2.7636,-2.7684,-2.7617,-2.7671,-2.7707,-2.7657,-2.7729,-2.7736,-2.776,-2.7848,-2.7887,-2.7858,-2.8032,-2.7974,-2.7984,-2.7989,-2.804,-2.8059,-2.8076,-2.7849,-2.7848,-2.7847,0,0,-2.7666,-2.7676,-2.7742,-2.7757,-2.7778,-2.7772,-2.7787,-2.7801,-2.7803,-2.7875,-2.7838,-2.7882,-2.7957,-2.7976,-2.7996,-2.813,-2.8102,-2.8144,-2.8221,-2.8274,-2.829,-2.8304,-2.8354,-2.8372,-2.8155,-2.8155,-2.8155,0,-2.7735,-2.7804,-2.7779,-2.7836,-2.7857,-2.7811,-2.7879,-2.7895,-2.7929,-2.7947,-2.7912,-2.8006,-2.8019,-2.8112,-2.8144,-2.8161,-2.8181,-2.8143,-2.8289,-2.8303,-2.8316,-2.8364,-2.8382,-2.816,-2.816,-2.8159,-2.8159,0,-2.7887,-2.7936,-2.7986,-2.8018,-2.8046,-2.8107,-2.8094,-2.8125,-2.8107,-2.8105,-2.8179,-2.8193,-2.8236,-2.8256,-2.824,-2.8347,-2.8328,-2.8292,-2.8233,-2.8341,-2.8386,-2.8403,-2.8168,-2.8166,-2.8164,-2.8163,0,0,-2.8066,-2.8083,-2.8102,-2.8116,-2.8136,-2.8174,-2.8234,-2.8274,-2.8302,-2.8327,-2.8378,-2.8442,-2.8409,-2.8431,-2.8416,-2.8463,-2.857,-2.8421,-2.8421,-2.845,-2.8692,-2.8721,-2.8742,-2.8551,-2.8554,-2.8556,-2.8691,0,-2.8194,-2.8296,-2.8276,-2.8376,-2.8422,-2.8379,-2.8431,-2.845,-2.845,-2.849,-2.849,-2.8537,-2.8488,-2.8501,-2.8545,-2.8548,-2.8619,-2.8538,-2.8601,-2.8603,-2.8598,-2.8765,-2.8795,-2.8921,-2.8708,-2.871,-2.8712,0,-2.8358,-2.8387,-2.8492,-2.8505,-2.8523,-2.8571,-2.8606,-2.8644,-2.8665,-2.8661,-2.8686,-2.8663,-2.8724,-2.8662,-2.8748,-2.8694,-2.8718,-2.8724,-2.8728,-2.8735,-2.8666,-2.8779,-2.8961,-2.8981,-2.8739,-2.8737,-2.8735,0,-2.848,-2.8546,-2.8617,-2.8631,-2.8647,-2.8681,-2.869,-2.8707,-2.8733,-2.8764,-2.8781,-2.882,-2.8842,-2.8873,-2.8861,-2.8817,-2.8951,-2.8887,-2.8952,-2.8953,-2.8984,-2.8983,-2.9175,-2.8996,-2.8996,-2.8996,-2.8995,0,-2.8627,-2.8694,-2.8672,-2.8717,-2.879,-2.8767,-2.8841,-2.8844,-2.886,-2.8906,-2.8871,-2.8915,-2.8895,-2.8939,-2.893,-2.9004,-2.9014,-2.9014,-2.9012,-2.9019,-2.9019,-2.9036,-2.9028,-2.9001,-2.9,-2.8999,-2.8998,0,-2.8778,-2.8765,-2.8841,-2.8849,-2.8853,-2.8907,-2.8915,-2.8957,-2.8953,-2.9012,-2.9024,-2.9019,-2.9068,-2.9059,-2.9114,-2.9108,-2.9201,-2.9186,-2.9194,-2.9191,-2.9257,-2.9252,-2.9469,-2.9497,-2.9298,-2.93,-2.9302,0,-2.8873,-2.8923,-2.8936,-2.8963,-2.8974,-2.9018,-2.9043,-2.9022,-2.9051,-2.9078,-2.9118,-2.9163,-2.9199,-2.928,-2.9283,-2.9325,-2.9312,-2.9385,-2.9319,-2.9325,-2.9316,-2.9314,-2.932,-2.94,-2.9402,-2.9404,-2.9405,0,-2.9045,-2.9036,-2.9073,-2.9108,-2.9139,-2.9166,-2.919,-2.9215,-2.9196,-2.923,-2.9278,-2.9306,-2.936,-2.9407,-2.9446,-2.9457,-2.943,-2.9426,-2.9443,-2.9452,-2.9455,-2.9457,-2.9232,-2.9422,-2.942,-2.9419,-2.9418,-2.9417,-2.9172,-2.9215,-2.9231,-2.9273,-2.9289,-2.9312,-2.9352,-2.9352,-2.9392,-2.9434,-2.9419,-2.9475,-2.9496,-2.9545,-2.956,-2.9606,-2.9579,-2.9604,-2.9611,-2.9618,-2.9627,-2.9446,-2.9612,-2.9612,-2.9612,-2.9611,-2.9611,0,-2.9344,-2.9352,-2.9391,-2.9425,-2.9459,-2.9426,-2.9451,-2.9482,-2.9531,-2.9552,-2.9587,-2.9644,-2.9688,-2.9694,-2.9737,-2.9772,-2.9761,-2.9784,-2.9783,-2.9787,-2.9647,-2.9629,-2.9793,-2.9793,-2.9793,-2.9793,-2.9793,-2.9793,-2.9438,-2.9509,-2.9502,-2.9581,-2.9588,-2.9641,-2.9659,-2.968,-2.9697,-2.9761,-2.9797,-2.9799,-2.9815,-2.9858,-2.9899,-2.9899,-2.9918,-2.9947,-2.9944,-2.9814,-2.9796,-2.9779,-2.9761,-2.9951,-2.9951,-3.0079,-3.008,-3.0081]},{"header":{"parameterUnit":"m.s-1","parameterCategory":1,"la1":30.2991,"la2":30.254,"lo1":-89.0895,"lo2":-89.0444,"dy":0.0017,"dx":0.0017,"nx":28,"ny":28,"refTime":"2026-03-02T09:00:00:Z","depth":0,"parameterNumber":3,"parameterNumberName":"V-component_of_WINDS"},"data":[0,0,0,0,0,0,0,0,0,0,0,0,0,0,0,0,0,0,0,0,0,0,0,0,0,0,0,0,0,0,0,0,0,0,0,0,0,0,0,0,0,0,0,0,0,0,0,0,0,0,0,0,0,0,0,0,0,0,0.8845,0.8846,0,0.8974,0.8976,0.8977,0.9118,0.912,0.9122,0.9124,0.9255,0.9257,0.9259,0,0,0,0,0,0,0,0,0,0,0,0,0,0.8717,0.8718,0.8845,0.8846,0.8848,0.8974,0.8976,0.8978,0.9117,0.912,0.9122,0.9124,0.9255,0.9257,0.9259,0,0,0,0,0,0,0,0,0,0,0,0,0,0.8802,0.8719,0.8844,0.8933,0.8942,0.8974,0.8976,0.8978,0.9117,0.912,0.9123,0.9126,0.9254,0.9257,0.9259,0.9214,0,0,0.9267,0.9268,0,0,0,0,0,0,0,0,0.8797,0.8806,0.8918,0.8927,0.8937,0.9033,0.8979,0.9057,0.9116,0.905,0.9124,0.9127,0.9179,0.9188,0.9205,0.922,0.9226,0.9267,0.9268,0.9269,0.927,0,0,0,0,0,0,0,0.8791,0.8802,0.8896,0.892,0.8931,0.8966,0.8981,0.8995,0.9096,0.9056,0.9067,0.908,0.9185,0.9203,0.921,0.9228,0.9267,0.9269,0.927,0.9271,0.9212,0.9209,0,0,0,0,0,0,0.8772,0.8796,0.8892,0.89,0.8873,0.8965,0.8983,0.8999,0.9096,0.9114,0.9078,0.9086,0.9197,0.9207,0.9215,0.9169,0.9269,0.9272,0.9273,0.9215,0.9211,0.9208,0,0,0,0,0,0,0.8768,0.8779,0.8887,0.8851,0.8867,0.8964,0.8982,0.9,0.9018,0.9112,0.9131,0.9077,0.92,0.9211,0.9213,0.9175,0.9273,0.9275,0.9218,0.9214,0.9209,0.9075,0,0,0,0,0,0,0.8764,0.8777,0.8761,0.8849,0.8868,0.8883,0.8979,0.9,0.9022,0.9035,0.9117,0.9134,0.9203,0.9209,0.9216,0.918,0.9277,0.9222,0.9216,0.9211,0.9083,0.9066,0.9052,0,0,0,0,0,0.8759,0.8718,0.8759,0.877,0.8851,0.888,0.8891,0.8972,0.9019,0.9003,0.9064,0.9131,0.9178,0.9208,0.9217,0.9181,0.9225,0.9218,0.9211,0.909,0.907,0.9052,0,0,0,0,0,0,0.8622,0.8731,0.8778,0.8765,0.8812,0.8904,0.8887,0.8948,0.8983,0.8993,0.9091,0.9109,0.9099,0.9141,0.9172,0.9143,0.9211,0.9206,0.9116,0.9097,0.9082,0.9072,0.9279,0,0,0,0,0,0.8591,0.8606,0.87,0.8679,0.87,0.8789,0.8805,0.8863,0.8916,0.8937,0.8998,0.9046,0.9072,0.9087,0.9116,0.909,0.911,0.907,0.9054,0.9041,0.9035,0.9024,0.9008,0.9185,0.9185,0.9185,0,0,0.8525,0.8587,0.859,0.8653,0.8697,0.871,0.8805,0.8815,0.8826,0.8939,0.8944,0.899,0.9051,0.9038,0.9036,0.9072,0.899,0.9032,0.9021,0.9023,0.9015,0.8998,0.8983,0.918,0.9181,0.9182,0,0,0.8413,0.8461,0.8449,0.849,0.8555,0.8615,0.8611,0.8694,0.8728,0.8736,0.882,0.8834,0.8876,0.8916,0.8942,0.8843,0.8907,0.885,0.8768,0.8757,0.8743,0.8731,0.8696,0.8682,0.8844,0.8844,0.8843,0,0.8324,0.8348,0.8434,0.8439,0.8464,0.8566,0.8554,0.8591,0.8661,0.8676,0.8716,0.8771,0.8819,0.8817,0.8793,0.881,0.8809,0.8842,0.8738,0.8727,0.8717,0.8684,0.8671,0.8836,0.8837,0.8838,0.8839,0,0.8235,0.825,0.8232,0.8297,0.832,0.8316,0.8402,0.8415,0.847,0.8525,0.853,0.8592,0.8635,0.8638,0.8693,0.8644,0.8665,0.8719,0.879,0.8691,0.8662,0.8651,0.8826,0.8828,0.8831,0.8832,0,0,0.8041,0.8154,0.8146,0.8177,0.8256,0.8269,0.8269,0.8312,0.832,0.8365,0.8368,0.8401,0.8452,0.8481,0.8541,0.853,0.8448,0.8587,0.859,0.8559,0.8398,0.8356,0.8341,0.849,0.8488,0.8487,0.8393,0,0.7943,0.7951,0.8029,0.8014,0.8029,0.8126,0.8126,0.8174,0.8224,0.8244,0.83,0.8322,0.8388,0.8406,0.84,0.8459,0.8417,0.8467,0.8494,0.8493,0.8476,0.8326,0.8282,0.8191,0.8382,0.838,0.8379,0,0.7831,0.7869,0.7855,0.7934,0.7943,0.7942,0.7987,0.8004,0.806,0.8098,0.8129,0.8196,0.8202,0.8267,0.8276,0.8308,0.8324,0.8354,0.8353,0.8359,0.843,0.8328,0.8164,0.815,0.8362,0.8364,0.8365,0,0.7691,0.7739,0.7738,0.7761,0.7852,0.7849,0.7887,0.7946,0.7966,0.8004,0.8019,0.8057,0.8078,0.8106,0.8181,0.8222,0.8181,0.8253,0.8212,0.821,0.82,0.82,0.8036,0.8208,0.8209,0.8209,0.8209,0,0.7574,0.7562,0.7676,0.7675,0.7664,0.7753,0.774,0.7787,0.7838,0.7847,0.7933,0.794,0.8039,0.8057,0.8116,0.8114,0.8123,0.8153,0.8169,0.8146,0.8142,0.8158,0.8166,0.8205,0.8206,0.8207,0.8207,0,0.7417,0.7493,0.7497,0.7583,0.7604,0.7592,0.7666,0.7668,0.7724,0.7734,0.7742,0.7829,0.7855,0.7932,0.7977,0.8017,0.7997,0.8027,0.7978,0.7989,0.7943,0.7947,0.7785,0.7768,0.795,0.7948,0.7946,0,0.7338,0.7331,0.7416,0.7428,0.7463,0.7482,0.7503,0.7589,0.7607,0.767,0.7664,0.7696,0.7727,0.7763,0.783,0.7864,0.7896,0.7837,0.7902,0.7878,0.7895,0.7895,0.7895,0.7823,0.782,0.7818,0.7817,0,0.7189,0.7227,0.7254,0.7293,0.7316,0.7351,0.7391,0.7397,0.7493,0.7509,0.7536,0.756,0.7605,0.7636,0.7681,0.772,0.7784,0.7795,0.7788,0.7764,0.7736,0.7751,0.794,0.7799,0.7801,0.7802,0.7803,0.7804,0.707,0.7068,0.7127,0.7154,0.7193,0.7228,0.7235,0.7291,0.7315,0.7359,0.7408,0.7429,0.7485,0.7552,0.7586,0.7603,0.7638,0.7627,0.7624,0.762,0.7609,0.7733,0.7612,0.7612,0.7613,0.7613,0.7614,0,0.6926,0.6968,0.6992,0.7046,0.7066,0.7125,0.7172,0.7185,0.7203,0.7249,0.7277,0.7308,0.7337,0.7406,0.7442,0.7443,0.7473,0.745,0.7451,0.7459,0.7576,0.7579,0.7425,0.7425,0.7425,0.7425,0.7425,0.7425,0.6854,0.6854,0.6898,0.6917,0.6961,0.6982,0.7004,0.7036,0.7074,0.7104,0.7129,0.7174,0.7229,0.727,0.73,0.7319,0.7328,0.7295,0.7324,0.7432,0.745,0.7468,0.7471,0.7296,0.7296,0.7205,0.7204,0.7204]}]]